Flag for U.S.A. Weather past 2 weeks in Grand Prairie, Texas, U.S.A.

Now
81 °F

Scattered clouds.


Feels Like: 82 °F
Forecast: 69 / 81 °F
Wind: 7 mph from North

Location: Grand Prairie Municipal Airport

Current Time: Aug 1, 2014 at 6:38:32 PM

Latest Report: Aug 1, 2014 at 5:50 PM


Visibility: 10 mi

Pressure: 30.05 "Hg

Humidity: 58%

Dew point: 64 °F

Location of Grand PrairieLocation

Historic Weather in Grand Prairie — Graph

°F

Grand Prairie temperature yesterday

Maximum temperature yesterday: 82 °F (at 12:15 AM)
Minimum temperature yesterday: 71 °F (at 10:35 PM)
Average temperature yesterday: 77 °F

Past Weeks' High & Low Weather Summary

 TemperatureHumidityPressure
High100 °F (Jul 27, 2:50 PM)100% (Jul 17, 11:55 PM)30.18 "Hg (Jul 17, 11:55 PM)
Low36 °F (Jul 18, 11:50 AM)24% (Jul 27, 4:50 PM)29.90 "Hg (Jul 17, 4:50 PM)
Average80 °F65%30.02 "Hg
* Reported Jul 17 4:50 PM — Aug 1 4:50 PM, Grand Prairie, Weather by CustomWeather, © 2014

Note: Actual official high and low records may vary slightly from our data, if they occured in-between our weather recording intervals... More about our weather records

Advertising

Grand Prairie weather history for previous 24 hours

 ConditionsComfort  
Time TempWeatherWind HumidityBarometerVisibility
4:50 PM
Aug 1
79 °FBroken clouds.9 mph61%30.05 "Hg10 mi
3:50 PM77 °FBroken clouds.10 mph65%30.05 "Hg10 mi
2:50 PM77 °FOvercast.10 mph65%30.07 "Hg10 mi
1:50 PM75 °FOvercast.10 mph69%30.08 "Hg10 mi
12:50 PM75 °FPartly sunny.10 mph69%30.08 "Hg10 mi
11:50 AM73 °FOvercast.7 mph78%30.08 "Hg10 mi
10:50 AM72 °FOvercast.7 mph83%30.08 "Hg10 mi
9:50 AM70 °FOvercast.9 mph94%30.07 "Hg7 mi
8:50 AM70 °FFog.7 mph100%30.07 "Hg4 mi
7:50 AM70 °FFog.7 mph88%30.05 "Hg3 mi
6:50 AM70 °FOvercast.8 mph83%30.04 "Hg10 mi
6:35 AM70 °FOvercast.8 mph82%30.03 "Hg10 mi
6:15 AM70 °FOvercast.6 mph82%30.03 "Hg10 mi
5:55 AM70 °FOvercast.9 mph82%30.02 "Hg10 mi
5:35 AM70 °FOvercast.7 mph82%30.03 "Hg10 mi
5:15 AM70 °FOvercast.9 mph82%30.03 "Hg10 mi
4:55 AM70 °FOvercast.8 mph82%30.03 "Hg10 mi
4:35 AM71 °FOvercast.8 mph81%30.02 "Hg10 mi
4:15 AM71 °FOvercast.8 mph81%30.02 "Hg10 mi
3:55 AM71 °FOvercast.10 mph81%30.01 "Hg10 mi
3:35 AM71 °FMostly cloudy.8 mph81%30.02 "Hg10 mi
3:15 AM71 °FMostly cloudy.9 mph80%30.03 "Hg10 mi
2:55 AM71 °FMostly cloudy.12 mph79%30.03 "Hg10 mi
2:35 AM71 °FOvercast.12 mph79%30.03 "Hg10 mi
2:15 AM71 °FOvercast.7 mph79%30.03 "Hg10 mi
1:55 AM71 °FOvercast.9 mph79%30.04 "Hg10 mi
1:35 AM71 °FOvercast.7 mph79%30.05 "Hg10 mi
1:15 AM71 °FOvercast.7 mph78%30.04 "Hg10 mi
12:55 AM71 °FOvercast.7 mph79%30.05 "Hg10 mi
12:35 AM71 °FMostly cloudy.9 mph80%30.05 "Hg10 mi
12:15 AM71 °FOvercast.12 mph78%30.05 "Hg10 mi
11:55 PM
Jul 31
71 °FOvercast.9 mph78%30.06 "Hg10 mi
11:15 PM71 °FOvercast.12 mph78%30.05 "Hg10 mi
10:55 PM71 °FMostly cloudy.9 mph78%30.03 "Hg10 mi
10:35 PM71 °FMostly cloudy.14 mph78%30.02 "Hg10 mi
10:15 PM71 °FMostly cloudy.15 mph77%30.01 "Hg10 mi
9:55 PM72 °FMostly cloudy.15 mph77%30.01 "Hg10 mi
9:35 PM72 °FOvercast.15 mph77%30.00 "Hg10 mi
9:15 PM72 °FMostly cloudy.13 mph77%30.01 "Hg10 mi
8:55 PM72 °FMore clouds than sun.13 mph77%30.00 "Hg10 mi
8:35 PM72 °FMore clouds than sun.12 mph77%30.00 "Hg10 mi
8:15 PM72 °FMostly cloudy.15 mph77%30.00 "Hg10 mi
6:50 PM73 °FOvercast.16 mph74%30.01 "Hg10 mi
Weather by CustomWeather, © 2014

See weather overviewHow to use our weather pages